Year,Month,Day,Hour,Minute,Value (Times are PST for temperature in C)
2013,09,12,00,00,18.90
2013,09,12,00,01,18.90
2013,09,12,00,02,18.90
2013,09,12,00,03,18.90
2013,09,12,00,04,18.90
2013,09,12,00,05,18.90
2013,09,12,00,06,19.00
2013,09,12,00,07,19.10
2013,09,12,00,08,19.10
2013,09,12,00,09,19.10
2013,09,12,00,10,18.90
2013,09,12,00,11,18.90
2013,09,12,00,12,18.90
2013,09,12,00,13,18.90
2013,09,12,00,14,18.90
2013,09,12,00,15,18.90
2013,09,12,00,16,18.90
2013,09,12,00,17,18.90
2013,09,12,00,18,18.90
2013,09,12,00,19,18.90
2013,09,12,00,20,18.90
2013,09,12,00,21,19.00
2013,09,12,00,22,19.10
2013,09,12,00,23,19.10
2013,09,12,00,24,19.10
2013,09,12,00,25,19.10
2013,09,12,00,26,19.10
2013,09,12,00,27,19.10
2013,09,12,00,28,19.10
2013,09,12,00,29,19.10
2013,09,12,00,30,19.10
2013,09,12,00,31,19.10
2013,09,12,00,32,19.10
2013,09,12,00,33,19.10
2013,09,12,00,34,19.10
2013,09,12,00,35,19.10
2013,09,12,00,36,19.10
2013,09,12,00,37,19.10
2013,09,12,00,38,19.10
2013,09,12,00,39,19.10
2013,09,12,00,40,19.10
2013,09,12,00,41,19.10
2013,09,12,00,42,19.20
2013,09,12,00,43,19.20
2013,09,12,00,44,19.20
2013,09,12,00,45,19.30
2013,09,12,00,46,19.30
2013,09,12,00,47,19.30
2013,09,12,00,48,19.30
2013,09,12,00,49,19.30
2013,09,12,00,50,19.30
2013,09,12,00,51,19.30
2013,09,12,00,52,19.30
2013,09,12,00,53,19.30
2013,09,12,00,54,19.20
2013,09,12,00,55,19.20
2013,09,12,00,56,19.20
2013,09,12,00,57,19.20
2013,09,12,00,58,19.10
2013,09,12,00,59,19.10
2013,09,12,01,00,19.00
2013,09,12,01,01,18.90
2013,09,12,01,02,18.90
2013,09,12,01,03,18.80
2013,09,12,01,04,18.70
2013,09,12,01,05,18.60
2013,09,12,01,06,18.50
2013,09,12,01,07,18.50
2013,09,12,01,08,18.30
2013,09,12,01,09,18.20
2013,09,12,01,10,18.10
2013,09,12,01,11,18.00
2013,09,12,01,12,17.90
2013,09,12,01,13,17.90
2013,09,12,01,14,17.80
2013,09,12,01,15,17.80
2013,09,12,01,16,17.70
2013,09,12,01,17,17.70
2013,09,12,01,18,17.70
2013,09,12,01,19,17.60
2013,09,12,01,20,17.60
2013,09,12,01,21,17.60
2013,09,12,01,22,17.50
2013,09,12,01,23,17.50
2013,09,12,01,24,17.40
2013,09,12,01,25,17.40
2013,09,12,01,26,17.40
2013,09,12,01,27,17.40
2013,09,12,01,28,17.40
2013,09,12,01,29,17.30
2013,09,12,01,30,17.30
2013,09,12,01,31,17.30
2013,09,12,01,32,17.30
2013,09,12,01,33,17.30
2013,09,12,01,34,17.30
2013,09,12,01,35,17.30
2013,09,12,01,36,17.30
2013,09,12,01,37,17.30
2013,09,12,01,38,17.30
2013,09,12,01,39,17.30
2013,09,12,01,40,17.30
2013,09,12,01,41,17.40
2013,09,12,01,42,17.40
2013,09,12,01,43,17.50
2013,09,12,01,44,17.50
2013,09,12,01,45,17.60
2013,09,12,01,46,17.60
2013,09,12,01,47,17.60
2013,09,12,01,48,17.60
2013,09,12,01,49,17.60
2013,09,12,01,50,17.70
2013,09,12,01,51,17.70
2013,09,12,01,52,17.70
2013,09,12,01,53,17.70
2013,09,12,01,54,17.80
2013,09,12,01,55,17.80
2013,09,12,01,56,17.90
2013,09,12,01,57,17.90
2013,09,12,01,58,17.90
2013,09,12,01,59,17.90
2013,09,12,02,00,17.90
2013,09,12,02,01,17.90
2013,09,12,02,02,17.90
2013,09,12,02,03,17.90
2013,09,12,02,04,17.90
2013,09,12,02,05,17.90
2013,09,12,02,06,17.90
2013,09,12,02,07,17.90
2013,09,12,02,08,17.90
2013,09,12,02,09,17.80
2013,09,12,02,10,17.70
2013,09,12,02,11,17.70
2013,09,12,02,12,17.70
2013,09,12,02,13,17.60
2013,09,12,02,14,17.60
2013,09,12,02,15,17.50
2013,09,12,02,16,17.40
2013,09,12,02,17,17.40
2013,09,12,02,18,17.30
2013,09,12,02,19,17.30
2013,09,12,02,20,17.30
2013,09,12,02,21,17.30
2013,09,12,02,22,17.30
2013,09,12,02,23,17.20
2013,09,12,02,24,17.20
2013,09,12,02,25,17.20
2013,09,12,02,26,17.20
2013,09,12,02,27,17.20
2013,09,12,02,28,17.30
2013,09,12,02,29,17.30
2013,09,12,02,30,17.20
2013,09,12,02,31,17.20
2013,09,12,02,32,17.10
2013,09,12,02,33,17.10
2013,09,12,02,34,17.00
2013,09,12,02,35,17.00
2013,09,12,02,36,17.00
2013,09,12,02,37,16.90
2013,09,12,02,38,16.90
2013,09,12,02,39,16.90
2013,09,12,02,40,16.80
2013,09,12,02,41,16.80
2013,09,12,02,42,16.80
2013,09,12,02,43,16.70
2013,09,12,02,44,16.70
2013,09,12,02,45,16.70
2013,09,12,02,46,16.70
2013,09,12,02,47,16.60
2013,09,12,02,48,16.60
2013,09,12,02,49,16.50
2013,09,12,02,50,16.40
2013,09,12,02,51,16.40
2013,09,12,02,52,16.40
2013,09,12,02,53,16.40
2013,09,12,02,54,16.40
2013,09,12,02,55,16.40
2013,09,12,02,56,16.40
2013,09,12,02,57,16.40
2013,09,12,02,58,16.40
2013,09,12,02,59,16.40
2013,09,12,03,00,16.40
2013,09,12,03,01,16.40
2013,09,12,03,02,16.40
2013,09,12,03,03,16.40
2013,09,12,03,04,16.40
2013,09,12,03,05,16.30
2013,09,12,03,06,16.30
2013,09,12,03,07,16.30
2013,09,12,03,08,16.20
2013,09,12,03,09,16.20
2013,09,12,03,10,16.20
2013,09,12,03,11,16.20
2013,09,12,03,12,16.20
2013,09,12,03,13,16.20
2013,09,12,03,14,16.20
2013,09,12,03,15,16.20
2013,09,12,03,16,16.20
2013,09,12,03,17,16.20
2013,09,12,03,18,16.20
2013,09,12,03,19,16.20
2013,09,12,03,20,16.20
2013,09,12,03,21,16.30
2013,09,12,03,22,16.30
2013,09,12,03,23,16.30
2013,09,12,03,24,16.40
2013,09,12,03,25,16.40
2013,09,12,03,26,16.40
2013,09,12,03,27,16.40
2013,09,12,03,28,16.40
2013,09,12,03,29,16.40
2013,09,12,03,30,16.50
2013,09,12,03,31,16.60
2013,09,12,03,32,16.70
2013,09,12,03,33,16.70
2013,09,12,03,34,16.80
2013,09,12,03,35,16.90
2013,09,12,03,36,16.90
2013,09,12,03,37,17.00
2013,09,12,03,38,17.00
2013,09,12,03,39,17.00
2013,09,12,03,40,17.00
2013,09,12,03,41,17.00
2013,09,12,03,42,16.90
2013,09,12,03,43,16.80
2013,09,12,03,44,16.80
2013,09,12,03,45,16.70
2013,09,12,03,46,16.70
2013,09,12,03,47,16.60
2013,09,12,03,48,16.50
2013,09,12,03,49,16.40
2013,09,12,03,50,16.40
2013,09,12,03,51,16.40
2013,09,12,03,52,16.40
2013,09,12,03,53,16.40
2013,09,12,03,54,16.40
2013,09,12,03,55,16.40
2013,09,12,03,56,16.40
2013,09,12,03,57,16.50
2013,09,12,03,58,16.60
2013,09,12,03,59,16.60
2013,09,12,04,00,16.60
2013,09,12,04,01,16.70
2013,09,12,04,02,16.70
2013,09,12,04,03,16.70
2013,09,12,04,04,16.70
2013,09,12,04,05,16.70
2013,09,12,04,06,16.70
2013,09,12,04,07,16.70
2013,09,12,04,08,16.70
2013,09,12,04,09,16.60
2013,09,12,04,10,16.60
2013,09,12,04,11,16.50
2013,09,12,04,12,16.40
2013,09,12,04,13,16.40
2013,09,12,04,14,16.40
2013,09,12,04,15,16.40
2013,09,12,04,16,16.40
2013,09,12,04,17,16.40
2013,09,12,04,18,16.30
2013,09,12,04,19,16.30
2013,09,12,04,20,16.30
2013,09,12,04,21,16.30
2013,09,12,04,22,16.20
2013,09,12,04,23,16.20
2013,09,12,04,24,16.20
2013,09,12,04,25,16.20
2013,09,12,04,26,16.20
2013,09,12,04,27,16.20
2013,09,12,04,28,16.20
2013,09,12,04,29,16.20
2013,09,12,04,30,16.20
2013,09,12,04,31,16.20
2013,09,12,04,32,16.20
2013,09,12,04,33,16.20
2013,09,12,04,34,16.20
2013,09,12,04,35,16.20
2013,09,12,04,36,16.20
2013,09,12,04,37,16.20
2013,09,12,04,38,16.20
2013,09,12,04,39,16.20
2013,09,12,04,40,16.30
2013,09,12,04,41,16.20
2013,09,12,04,42,16.20
2013,09,12,04,43,16.20
2013,09,12,04,44,16.20
2013,09,12,04,45,16.20
2013,09,12,04,46,16.20
2013,09,12,04,47,16.10
2013,09,12,04,48,16.10
2013,09,12,04,49,16.10
2013,09,12,04,50,16.10
2013,09,12,04,51,16.10
2013,09,12,04,52,16.10
2013,09,12,04,53,16.10
2013,09,12,04,54,16.10
2013,09,12,04,55,16.10
2013,09,12,04,56,16.10
2013,09,12,04,57,16.10
2013,09,12,04,58,16.10
2013,09,12,04,59,16.10
2013,09,12,05,00,16.10
2013,09,12,05,01,16.10
2013,09,12,05,02,16.10
2013,09,12,05,03,16.10
2013,09,12,05,04,16.10
2013,09,12,05,05,16.10
2013,09,12,05,06,16.10
2013,09,12,05,07,16.10
2013,09,12,05,08,16.00
2013,09,12,05,09,15.90
2013,09,12,05,10,15.90
2013,09,12,05,11,15.90
2013,09,12,05,12,15.80
2013,09,12,05,13,15.80
2013,09,12,05,14,15.80
2013,09,12,05,15,15.80
2013,09,12,05,16,15.70
2013,09,12,05,17,15.70
2013,09,12,05,18,15.60
2013,09,12,05,19,15.60
2013,09,12,05,20,15.60
2013,09,12,05,21,15.50
2013,09,12,05,22,15.50
2013,09,12,05,23,15.50
2013,09,12,05,24,15.50
2013,09,12,05,25,15.40
2013,09,12,05,26,15.40
2013,09,12,05,27,15.40
2013,09,12,05,28,15.40
2013,09,12,05,29,15.40
2013,09,12,05,30,15.40
2013,09,12,05,31,15.40
2013,09,12,05,32,15.30
2013,09,12,05,33,15.30
2013,09,12,05,34,15.30
2013,09,12,05,35,15.30
2013,09,12,05,36,15.30
2013,09,12,05,37,15.30
2013,09,12,05,38,15.30
2013,09,12,05,39,15.20
2013,09,12,05,40,15.20
2013,09,12,05,41,15.20
2013,09,12,05,42,15.20
2013,09,12,05,43,15.20
2013,09,12,05,44,15.20
2013,09,12,05,45,15.20
2013,09,12,05,46,15.20
2013,09,12,05,47,15.20
2013,09,12,05,48,15.30
2013,09,12,05,49,15.30
2013,09,12,05,50,15.30
2013,09,12,05,51,15.30
2013,09,12,05,52,15.30
2013,09,12,05,53,15.30
2013,09,12,05,54,15.30
2013,09,12,05,55,15.20
2013,09,12,05,56,15.20
2013,09,12,05,57,15.20
2013,09,12,05,58,15.20
2013,09,12,05,59,15.20
2013,09,12,06,00,15.20
2013,09,12,06,01,15.10
2013,09,12,06,02,15.20
2013,09,12,06,03,15.20
2013,09,12,06,04,15.20
2013,09,12,06,05,15.30
2013,09,12,06,06,15.30
2013,09,12,06,07,15.40
2013,09,12,06,08,15.50
2013,09,12,06,09,15.50
2013,09,12,06,10,15.60
2013,09,12,06,11,15.60
2013,09,12,06,12,15.60
2013,09,12,06,13,15.70
2013,09,12,06,14,15.70
2013,09,12,06,15,15.80
2013,09,12,06,16,15.80
2013,09,12,06,17,15.80
2013,09,12,06,18,15.80
2013,09,12,06,19,15.80
2013,09,12,06,20,15.80
2013,09,12,06,21,15.90
2013,09,12,06,22,15.90
2013,09,12,06,23,15.90
2013,09,12,06,24,15.80
2013,09,12,06,25,15.80
2013,09,12,06,26,15.80
2013,09,12,06,27,15.80
2013,09,12,06,28,15.80
2013,09,12,06,29,15.70
2013,09,12,06,30,15.60
2013,09,12,06,31,15.60
2013,09,12,06,32,15.50
2013,09,12,06,33,15.50
2013,09,12,06,34,15.40
2013,09,12,06,35,15.40
2013,09,12,06,36,15.30
2013,09,12,06,37,15.30
2013,09,12,06,38,15.30
2013,09,12,06,39,15.30
2013,09,12,06,40,15.40
2013,09,12,06,41,15.40
2013,09,12,06,42,15.50
2013,09,12,06,43,15.50
2013,09,12,06,44,15.60
2013,09,12,06,45,15.60
2013,09,12,06,46,15.70
2013,09,12,06,47,15.80
2013,09,12,06,48,15.80
2013,09,12,06,49,15.80
2013,09,12,06,50,15.90
2013,09,12,06,51,15.90
2013,09,12,06,52,15.90
2013,09,12,06,53,15.90
2013,09,12,06,54,15.90
2013,09,12,06,55,15.90
2013,09,12,06,56,15.80
2013,09,12,06,57,15.80
2013,09,12,06,58,15.80
2013,09,12,06,59,15.80
2013,09,12,07,00,15.70
2013,09,12,07,01,15.70
2013,09,12,07,02,15.60
2013,09,12,07,03,15.60
2013,09,12,07,04,15.50
2013,09,12,07,05,15.50
2013,09,12,07,06,15.40
2013,09,12,07,07,15.30
2013,09,12,07,08,15.30
2013,09,12,07,09,15.30
2013,09,12,07,10,15.20
2013,09,12,07,11,15.20
2013,09,12,07,12,15.10
2013,09,12,07,13,15.10
2013,09,12,07,14,15.10
2013,09,12,07,15,15.10
2013,09,12,07,16,15.10
2013,09,12,07,17,15.20
2013,09,12,07,18,15.20
2013,09,12,07,19,15.20
2013,09,12,07,20,15.30
2013,09,12,07,21,15.30
2013,09,12,07,22,15.30
2013,09,12,07,23,15.40
2013,09,12,07,24,15.40
2013,09,12,07,25,15.50
2013,09,12,07,26,15.50
2013,09,12,07,27,15.60
2013,09,12,07,28,15.70
2013,09,12,07,29,15.80
2013,09,12,07,30,15.80
2013,09,12,07,31,15.80
2013,09,12,07,32,15.90
2013,09,12,07,33,16.00
2013,09,12,07,34,16.10
2013,09,12,07,35,16.10
2013,09,12,07,36,16.10
2013,09,12,07,37,16.20
2013,09,12,07,38,16.20
2013,09,12,07,39,16.30
2013,09,12,07,40,16.30
2013,09,12,07,41,16.40
2013,09,12,07,42,16.40
2013,09,12,07,43,16.50
2013,09,12,07,44,16.60
2013,09,12,07,45,16.70
2013,09,12,07,46,16.80
2013,09,12,07,47,16.90
2013,09,12,07,48,17.00
2013,09,12,07,49,17.00
2013,09,12,07,50,17.00
2013,09,12,07,51,17.10
2013,09,12,07,52,17.10
2013,09,12,07,53,17.10
2013,09,12,07,54,17.10
2013,09,12,07,55,17.10
2013,09,12,07,56,17.10
2013,09,12,07,57,17.20
2013,09,12,07,58,17.20
2013,09,12,07,59,17.20
2013,09,12,08,00,17.20
2013,09,12,08,01,17.20
2013,09,12,08,02,17.30
2013,09,12,08,03,17.30
2013,09,12,08,04,17.30
2013,09,12,08,05,17.40
2013,09,12,08,06,17.40
2013,09,12,08,07,17.50
2013,09,12,08,08,17.50
2013,09,12,08,09,17.60
2013,09,12,08,10,17.60
2013,09,12,08,11,17.70
2013,09,12,08,12,17.80
2013,09,12,08,13,17.80
2013,09,12,08,14,17.80
2013,09,12,08,15,17.90
2013,09,12,08,16,17.90
2013,09,12,08,17,17.90
2013,09,12,08,18,17.90
2013,09,12,08,19,17.90
2013,09,12,08,20,17.90
2013,09,12,08,21,18.10
2013,09,12,08,22,18.10
2013,09,12,08,23,18.10
2013,09,12,08,24,18.10
2013,09,12,08,25,18.10
2013,09,12,08,26,18.10
2013,09,12,08,27,18.20
2013,09,12,08,28,18.20
2013,09,12,08,29,18.20
2013,09,12,08,30,18.20
2013,09,12,08,31,18.30
2013,09,12,08,32,18.40
2013,09,12,08,33,18.50
2013,09,12,08,34,18.60
2013,09,12,08,35,18.60
2013,09,12,08,36,18.70
2013,09,12,08,37,18.70
2013,09,12,08,38,18.80
2013,09,12,08,39,18.80
2013,09,12,08,40,18.80
2013,09,12,08,41,18.80
2013,09,12,08,42,18.80
2013,09,12,08,43,18.80
2013,09,12,08,44,18.80
2013,09,12,08,45,18.80
2013,09,12,08,46,18.80
2013,09,12,08,47,18.90
2013,09,12,08,48,18.90
2013,09,12,08,49,18.90
2013,09,12,08,50,19.00
2013,09,12,08,51,19.10
2013,09,12,08,52,19.10
2013,09,12,08,53,19.10
2013,09,12,08,54,19.10
2013,09,12,08,55,19.10
2013,09,12,08,56,19.10
2013,09,12,08,57,19.10
2013,09,12,08,58,19.10
2013,09,12,08,59,19.10
2013,09,12,09,00,19.10
2013,09,12,09,01,19.10
2013,09,12,09,02,19.10
2013,09,12,09,03,19.10
2013,09,12,09,04,19.10
2013,09,12,09,05,18.90
2013,09,12,09,06,18.90
2013,09,12,09,07,18.70
2013,09,12,09,08,18.60
2013,09,12,09,09,18.60
2013,09,12,09,10,18.60
2013,09,12,09,11,18.60
2013,09,12,09,12,18.60
2013,09,12,09,13,18.70
2013,09,12,09,14,18.70
2013,09,12,09,15,18.70
2013,09,12,09,16,18.70
2013,09,12,09,17,18.80
2013,09,12,09,18,18.90
2013,09,12,09,19,19.00
2013,09,12,09,20,19.10
2013,09,12,09,21,19.10
2013,09,12,09,22,19.00
2013,09,12,09,23,18.90
2013,09,12,09,24,18.90
2013,09,12,09,25,18.90
2013,09,12,09,26,18.90
2013,09,12,09,27,18.90
2013,09,12,09,28,18.90
2013,09,12,09,29,18.90
2013,09,12,09,30,18.90
2013,09,12,09,31,18.90
2013,09,12,09,32,18.90
2013,09,12,09,33,18.90
2013,09,12,09,34,19.00
2013,09,12,09,35,19.10
2013,09,12,09,36,19.20
2013,09,12,09,37,19.40
2013,09,12,09,38,19.50
2013,09,12,09,39,19.60
2013,09,12,09,40,19.70
2013,09,12,09,41,19.90
2013,09,12,09,42,20.00
2013,09,12,09,43,20.20
2013,09,12,09,44,20.30
2013,09,12,09,45,20.40
2013,09,12,09,46,20.50
2013,09,12,09,47,20.50
2013,09,12,09,48,20.50
2013,09,12,09,49,20.50
2013,09,12,09,50,20.50
2013,09,12,09,51,20.50
2013,09,12,09,52,20.50
2013,09,12,09,53,20.50
2013,09,12,09,54,20.50
2013,09,12,09,55,20.50
2013,09,12,09,56,20.50
2013,09,12,09,57,20.50
2013,09,12,09,58,20.50
2013,09,12,09,59,20.50
2013,09,12,10,00,20.50
2013,09,12,10,01,20.50
2013,09,12,10,02,20.40
2013,09,12,10,03,20.40
2013,09,12,10,04,20.30
2013,09,12,10,05,20.20
2013,09,12,10,06,20.10
2013,09,12,10,07,20.10
2013,09,12,10,08,20.10
2013,09,12,10,09,20.10
2013,09,12,10,10,20.10
2013,09,12,10,11,20.10
2013,09,12,10,12,20.10
2013,09,12,10,13,20.10
2013,09,12,10,14,20.00
2013,09,12,10,15,19.90
2013,09,12,10,16,19.90
2013,09,12,10,17,19.90
2013,09,12,10,18,19.90
2013,09,12,10,19,19.90
2013,09,12,10,20,19.80
2013,09,12,10,21,19.80
2013,09,12,10,22,19.80
2013,09,12,10,23,19.80
2013,09,12,10,24,19.70
2013,09,12,10,25,19.70
2013,09,12,10,26,19.80
2013,09,12,10,27,19.80
2013,09,12,10,28,19.80
2013,09,12,10,29,19.90
2013,09,12,10,30,19.90
2013,09,12,10,31,19.90
2013,09,12,10,32,19.90
2013,09,12,10,33,19.80
2013,09,12,10,34,19.70
2013,09,12,10,35,19.60
2013,09,12,10,36,19.60
2013,09,12,10,37,19.60
2013,09,12,10,38,19.50
2013,09,12,10,39,19.30
2013,09,12,10,40,19.10
2013,09,12,10,41,19.00
2013,09,12,10,42,18.70
2013,09,12,10,43,18.50
2013,09,12,10,44,18.40
2013,09,12,10,45,18.30
2013,09,12,10,46,18.20
2013,09,12,10,47,18.10
2013,09,12,10,48,17.90
2013,09,12,10,49,17.90
2013,09,12,10,50,17.80
2013,09,12,10,51,17.70
2013,09,12,10,52,17.70
2013,09,12,10,53,17.60
2013,09,12,10,54,17.60
2013,09,12,10,55,17.60
2013,09,12,10,56,17.60
2013,09,12,10,57,17.50
2013,09,12,10,58,17.60
2013,09,12,10,59,17.70
2013,09,12,11,00,17.70
2013,09,12,11,01,17.80
2013,09,12,11,02,17.70
2013,09,12,11,03,17.70
2013,09,12,11,04,17.60
2013,09,12,11,05,17.60
2013,09,12,11,06,17.60
2013,09,12,11,07,17.70
2013,09,12,11,08,17.70
2013,09,12,11,09,17.70
2013,09,12,11,10,17.60
2013,09,12,11,11,17.50
2013,09,12,11,12,17.50
2013,09,12,11,13,17.50
2013,09,12,11,14,17.70
2013,09,12,11,15,17.70
2013,09,12,11,16,17.70
2013,09,12,11,17,17.50
2013,09,12,11,18,17.30
2013,09,12,11,19,17.30
2013,09,12,11,20,17.20
2013,09,12,11,21,17.20
2013,09,12,11,22,17.20
2013,09,12,11,23,17.10
2013,09,12,11,24,17.00
2013,09,12,11,25,16.90
2013,09,12,11,26,16.80
2013,09,12,11,27,16.80
2013,09,12,11,28,16.70
2013,09,12,11,29,16.70
2013,09,12,11,30,16.60
2013,09,12,11,31,16.40
2013,09,12,11,32,16.30
2013,09,12,11,33,16.30
2013,09,12,11,34,16.30
2013,09,12,11,35,16.30
2013,09,12,11,36,16.30
2013,09,12,11,37,16.30
2013,09,12,11,38,16.40
2013,09,12,11,39,16.50
2013,09,12,11,40,16.60
2013,09,12,11,41,16.60
2013,09,12,11,42,16.50
2013,09,12,11,43,16.50
2013,09,12,11,44,16.60
2013,09,12,11,45,16.60
2013,09,12,11,46,16.60
2013,09,12,11,47,16.70
2013,09,12,11,48,16.70
2013,09,12,11,49,16.70
2013,09,12,11,50,16.70
2013,09,12,11,51,16.80
2013,09,12,11,52,16.90
2013,09,12,11,53,17.00
2013,09,12,11,54,17.10
2013,09,12,11,55,17.30
2013,09,12,11,56,17.30
2013,09,12,11,57,17.30
2013,09,12,11,58,17.10
2013,09,12,11,59,17.00
2013,09,12,12,00,17.00
2013,09,12,12,01,17.00
2013,09,12,12,02,17.00
2013,09,12,12,03,16.90
2013,09,12,12,04,16.80
2013,09,12,12,05,16.70
2013,09,12,12,06,16.80
2013,09,12,12,07,17.00
2013,09,12,12,08,17.20
2013,09,12,12,09,17.40
2013,09,12,12,10,17.50
2013,09,12,12,11,17.70
2013,09,12,12,12,17.80
2013,09,12,12,13,18.00
2013,09,12,12,14,18.20
2013,09,12,12,15,18.30
2013,09,12,12,16,18.40
2013,09,12,12,17,18.50
2013,09,12,12,18,18.60
2013,09,12,12,19,18.70
2013,09,12,12,20,18.80
2013,09,12,12,21,18.90
2013,09,12,12,22,18.90
2013,09,12,12,23,19.00
2013,09,12,12,24,19.10
2013,09,12,12,25,19.10
2013,09,12,12,26,19.10
2013,09,12,12,27,19.20
2013,09,12,12,28,19.30
2013,09,12,12,29,19.40
2013,09,12,12,30,19.50
2013,09,12,12,31,19.60
2013,09,12,12,32,19.80
2013,09,12,12,33,20.00
2013,09,12,12,34,20.20
2013,09,12,12,35,20.30
2013,09,12,12,36,20.40
2013,09,12,12,37,20.50
2013,09,12,12,38,20.70
2013,09,12,12,39,20.70
2013,09,12,12,40,20.80
2013,09,12,12,41,20.80
2013,09,12,12,42,20.80
2013,09,12,12,43,20.90
2013,09,12,12,44,20.90
2013,09,12,12,45,20.80
2013,09,12,12,46,20.80
2013,09,12,12,47,20.70
2013,09,12,12,48,20.70
2013,09,12,12,49,20.50
2013,09,12,12,50,20.40
2013,09,12,12,51,20.20
2013,09,12,12,52,20.20
2013,09,12,12,53,20.30
2013,09,12,12,54,20.40
2013,09,12,12,55,20.50
2013,09,12,12,56,20.70
2013,09,12,12,57,20.90
2013,09,12,12,58,21.00
2013,09,12,12,59,21.10
2013,09,12,13,00,21.30
2013,09,12,13,01,21.30
2013,09,12,13,02,21.30
2013,09,12,13,03,21.30
2013,09,12,13,04,21.30
2013,09,12,13,05,21.30
2013,09,12,13,06,21.30
2013,09,12,13,07,21.30
2013,09,12,13,08,21.30
2013,09,12,13,09,21.30
2013,09,12,13,10,21.30
2013,09,12,13,11,21.40
2013,09,12,13,12,21.40
2013,09,12,13,13,21.40
2013,09,12,13,14,21.40
2013,09,12,13,15,21.40
2013,09,12,13,16,21.50
2013,09,12,13,17,21.60
2013,09,12,13,18,21.60
2013,09,12,13,19,21.70
2013,09,12,13,20,21.80
2013,09,12,13,21,21.80
2013,09,12,13,22,21.90
2013,09,12,13,23,21.90
2013,09,12,13,24,22.00
2013,09,12,13,25,22.00
2013,09,12,13,26,22.00
2013,09,12,13,27,22.00
2013,09,12,13,28,22.00
2013,09,12,13,29,21.90
2013,09,12,13,30,21.90
2013,09,12,13,31,21.90
2013,09,12,13,32,21.90
2013,09,12,13,33,21.90
2013,09,12,13,34,22.00
2013,09,12,13,35,22.00
2013,09,12,13,36,22.10
2013,09,12,13,37,22.20
2013,09,12,13,38,22.30
2013,09,12,13,39,22.40
2013,09,12,13,40,22.40
2013,09,12,13,41,22.50
2013,09,12,13,42,22.40
2013,09,12,13,43,22.30
2013,09,12,13,44,22.20
2013,09,12,13,45,22.00
2013,09,12,13,46,21.90
2013,09,12,13,47,21.90
2013,09,12,13,48,21.90
2013,09,12,13,49,21.90
2013,09,12,13,50,21.90
2013,09,12,13,51,21.90
2013,09,12,13,52,21.80
2013,09,12,13,53,21.70
2013,09,12,13,54,21.60
2013,09,12,13,55,21.50
2013,09,12,13,56,21.40
2013,09,12,13,57,21.30
2013,09,12,13,58,21.30
2013,09,12,13,59,21.20
2013,09,12,14,00,21.10
2013,09,12,14,01,21.00
2013,09,12,14,02,20.80
2013,09,12,14,03,20.70
2013,09,12,14,04,20.70
2013,09,12,14,05,20.70
2013,09,12,14,06,20.70
2013,09,12,14,07,20.60
2013,09,12,14,08,20.70
2013,09,12,14,09,20.70
2013,09,12,14,10,20.70
2013,09,12,14,11,20.60
2013,09,12,14,12,20.50
2013,09,12,14,13,20.50
2013,09,12,14,14,20.40
2013,09,12,14,15,20.40
2013,09,12,14,16,20.40
2013,09,12,14,17,20.40
2013,09,12,14,18,20.50
2013,09,12,14,19,20.60
2013,09,12,14,20,20.70
2013,09,12,14,21,20.90
2013,09,12,14,22,21.00
2013,09,12,14,23,21.20
2013,09,12,14,24,21.30
2013,09,12,14,25,21.50
2013,09,12,14,26,21.60
2013,09,12,14,27,21.70
2013,09,12,14,28,21.90
2013,09,12,14,29,22.00
2013,09,12,14,30,22.20
2013,09,12,14,31,22.30
2013,09,12,14,32,22.40
2013,09,12,14,33,22.50
2013,09,12,14,34,22.50
2013,09,12,14,35,22.50
2013,09,12,14,36,22.60
2013,09,12,14,37,22.60
2013,09,12,14,38,22.60
2013,09,12,14,39,22.70
2013,09,12,14,40,22.80
2013,09,12,14,41,22.80
2013,09,12,14,42,22.90
2013,09,12,14,43,22.90
2013,09,12,14,44,22.90
2013,09,12,14,45,22.90
2013,09,12,14,46,23.10
2013,09,12,14,47,23.10
2013,09,12,14,48,23.20
2013,09,12,14,49,23.20
2013,09,12,14,50,23.20
2013,09,12,14,51,23.20
2013,09,12,14,52,23.20
2013,09,12,14,53,23.10
2013,09,12,14,54,23.10
2013,09,12,14,55,23.20
2013,09,12,14,56,23.10
2013,09,12,14,57,23.10
2013,09,12,14,58,22.90
2013,09,12,14,59,22.90
2013,09,12,15,00,22.90
2013,09,12,15,01,22.90
2013,09,12,15,02,22.80
2013,09,12,15,03,22.70
2013,09,12,15,04,22.60
2013,09,12,15,05,22.60
2013,09,12,15,06,22.50
2013,09,12,15,07,22.40
2013,09,12,15,08,22.30
2013,09,12,15,09,22.30
2013,09,12,15,10,22.20
2013,09,12,15,11,22.20
2013,09,12,15,12,22.00
2013,09,12,15,13,22.00
2013,09,12,15,14,21.90
2013,09,12,15,15,21.90
2013,09,12,15,16,21.80
2013,09,12,15,17,21.80
2013,09,12,15,18,21.70
2013,09,12,15,19,21.70
2013,09,12,15,20,21.80
2013,09,12,15,21,21.80
2013,09,12,15,22,21.90
2013,09,12,15,23,21.90
2013,09,12,15,24,21.90
2013,09,12,15,25,21.90
2013,09,12,15,26,21.80
2013,09,12,15,27,21.70
2013,09,12,15,28,21.70
2013,09,12,15,29,21.70
2013,09,12,15,30,21.60
2013,09,12,15,31,21.60
2013,09,12,15,32,21.70
2013,09,12,15,33,21.70
2013,09,12,15,34,21.70
2013,09,12,15,35,21.80
2013,09,12,15,36,21.70
2013,09,12,15,37,21.80
2013,09,12,15,38,21.80
2013,09,12,15,39,21.90
2013,09,12,15,40,21.90
2013,09,12,15,41,21.90
2013,09,12,15,42,21.90
2013,09,12,15,43,21.90
2013,09,12,15,44,21.90
2013,09,12,15,45,21.90
2013,09,12,15,46,21.80
2013,09,12,15,47,21.80
2013,09,12,15,48,21.70
2013,09,12,15,49,21.70
2013,09,12,15,50,21.70
2013,09,12,15,51,21.70
2013,09,12,15,52,21.70
2013,09,12,15,53,21.70
2013,09,12,15,54,21.70
2013,09,12,15,55,21.70
2013,09,12,15,56,21.80
2013,09,12,15,57,21.90
2013,09,12,15,58,22.00
2013,09,12,15,59,22.00
2013,09,12,16,00,22.10
2013,09,12,16,01,22.20
2013,09,12,16,02,22.30
2013,09,12,16,03,22.30
2013,09,12,16,04,22.40
2013,09,12,16,05,22.50
2013,09,12,16,06,22.60
2013,09,12,16,07,22.80
2013,09,12,16,08,22.90
2013,09,12,16,09,23.00
2013,09,12,16,10,23.20
2013,09,12,16,11,23.30
2013,09,12,16,12,23.40
2013,09,12,16,13,23.60
2013,09,12,16,14,23.70
2013,09,12,16,15,23.80
2013,09,12,16,16,23.90
2013,09,12,16,17,24.00
2013,09,12,16,18,24.10
2013,09,12,16,19,24.30
2013,09,12,16,20,24.40
2013,09,12,16,21,24.50
2013,09,12,16,22,24.70
2013,09,12,16,23,24.80
2013,09,12,16,24,24.80
2013,09,12,16,25,24.90
2013,09,12,16,26,24.90
2013,09,12,16,27,24.90
2013,09,12,16,28,25.00
2013,09,12,16,29,25.10
2013,09,12,16,30,25.20
2013,09,12,16,31,25.30
2013,09,12,16,32,25.30
2013,09,12,16,33,25.40
2013,09,12,16,34,25.50
2013,09,12,16,35,25.60
2013,09,12,16,36,25.60
2013,09,12,16,37,25.70
2013,09,12,16,38,25.80
2013,09,12,16,39,25.90
2013,09,12,16,40,26.00
2013,09,12,16,41,26.00
2013,09,12,16,42,26.00
2013,09,12,16,43,26.10
2013,09,12,16,44,26.10
2013,09,12,16,45,26.10
2013,09,12,16,46,26.20
2013,09,12,16,47,26.20
2013,09,12,16,48,26.20
2013,09,12,16,49,26.20
2013,09,12,16,50,26.10
2013,09,12,16,51,26.00
2013,09,12,16,52,26.00
2013,09,12,16,53,25.90
2013,09,12,16,54,25.80
2013,09,12,16,55,25.80
2013,09,12,16,56,25.70
2013,09,12,16,57,25.60
2013,09,12,16,58,25.50
2013,09,12,16,59,25.40
2013,09,12,17,00,25.30
2013,09,12,17,01,25.30
2013,09,12,17,02,25.20
2013,09,12,17,03,25.10
2013,09,12,17,04,25.00
2013,09,12,17,05,24.90
2013,09,12,17,06,24.90
2013,09,12,17,07,24.80
2013,09,12,17,08,24.80
2013,09,12,17,09,24.80
2013,09,12,17,10,24.90
2013,09,12,17,11,24.90
2013,09,12,17,12,24.90
2013,09,12,17,13,25.00
2013,09,12,17,14,25.00
2013,09,12,17,15,25.00
2013,09,12,17,16,25.00
2013,09,12,17,17,25.10
2013,09,12,17,18,25.20
2013,09,12,17,19,25.30